Weather History for Pagosa Springs, CO

Change the Weather History Date:

Thursday, May 16, 2013

  Actual Average (KDRO) Record (KDRO)
Temperature  
Mean Temperature 54 °F 53 °F  
Max Temperature 73 °F 71 °F 84 °F (1988)
Min Temperature 34 °F 36 °F 25 °F (1998)
Degree Days  
Heating Degree Days 12 12  
Month to date heating degree days 227  
Since 1 July heating degree days 6863  
Cooling Degree Days 0 0  
Month to date cooling degree days 0  
Year to date cooling degree days 0  
Growing Degree Days 4 (Base 50)    
Moisture  
Dew Point 23 °F    
Average Humidity 37    
Maximum Humidity 87    
Minimum Humidity 10    
Precipitation  
Precipitation 0.00 in 0.03 in 0.47 in (1981)
Month to date precipitation 0.56  
Year to date precipitation 5.19  
Sea Level Pressure  
Sea Level Pressure 30.12 in    
Wind  
Wind Speed 4 mph (SW)    
Max Wind Speed 18 mph    
Max Gust Speed 28 mph    
Visibility 10 miles    
Events Thunderstorm    
T = Trace of Precipitation, MM = Missing Value Source: NWS Daily Summary

Daily Weather History Graph

Daily Weather History Graph

Search for Another Location

Airport:

Trip Planner

Search our weather history database for the weather conditions in past years. The results will help you decide how hot, cold, wet, or windy it might be!

Date:

Astronomy

May. 16, 2013 Rise Set
Actual Time 5:58 AM MDT 8:11 PM MDT
Civil Twilight 5:29 AM MDT 8:40 PM MDT
Nautical Twilight 4:53 AM MDT 9:16 PM MDT
Astronomical Twilight 4:14 AM MDT 9:55 PM MDT
Moon 11:32 AM MDT (5/16) 12:35 AM MDT (5/16)
Length of Visible Light 15h 11m
Length of Day
14h 12m
Waxing Crescent, 36% of the Moon is Illuminated
May 16
Waxing Crescent
May 17
First Quarter
May 24
Full
May 31
Last Quarter
Jun 8
New

Hourly Weather History & Observations

Time (MDT) Temp. Windchill Dew Point Humidity Pressure Visibility Wind Dir Wind Speed Gust Speed Precip Events Conditions
12:15 AM 48.9 °F - 34.3 °F 57% 30.12 in 10.0 mi NE 4.6 mph - N/A   Clear
12:35 AM 45.9 °F 43.6 °F 34.5 °F 65% 30.12 in 10.0 mi NE 4.6 mph - N/A   Clear
12:55 AM 45.1 °F 42.8 °F 34.3 °F 66% 30.12 in 10.0 mi NE 4.6 mph - N/A   Clear
1:15 AM 42.1 °F 40.2 °F 33.8 °F 72% 30.12 in 10.0 mi NNE 3.5 mph - N/A   Clear
1:35 AM 44.4 °F - 34.3 °F 68% 30.12 in 10.0 mi Calm Calm - N/A   Clear
1:55 AM 41.2 °F - 32.9 °F 72% 30.12 in 10.0 mi Calm Calm - N/A   Clear
2:15 AM 40.1 °F - 33.3 °F 77% 30.12 in 10.0 mi Calm Calm - N/A   Clear
2:35 AM 39.6 °F - 33.3 °F 78% 30.12 in 10.0 mi Calm Calm - N/A   Clear
2:55 AM 39.6 °F - 32.2 °F 75% 30.12 in 10.0 mi Calm Calm - N/A   Clear
3:15 AM 38.1 °F - 33.4 °F 83% 30.12 in 10.0 mi Calm Calm - N/A   Clear
3:35 AM 38.3 °F - 32.9 °F 81% 30.12 in 10.0 mi Calm Calm - N/A   Clear
3:55 AM 38.5 °F - 32.5 °F 79% 30.13 in 10.0 mi Calm Calm - N/A   Clear
4:15 AM 37.4 °F - 32.7 °F 83% 30.13 in 10.0 mi Calm Calm - N/A   Clear
4:35 AM 37.0 °F - 32.7 °F 84% 30.13 in 10.0 mi Calm Calm - N/A   Clear
4:55 AM 37.2 °F - 32.7 °F 84% 30.14 in 10.0 mi Calm Calm - N/A   Clear
5:15 AM 37.0 °F - 31.5 °F 80% 30.14 in 10.0 mi Calm Calm - N/A   Clear
5:35 AM 36.5 °F - 31.8 °F 83% 30.14 in 10.0 mi Calm Calm - N/A   Clear
5:55 AM 34.5 °F - 31.1 °F 87% 30.14 in 10.0 mi Calm Calm - N/A   Clear
6:15 AM 36.0 °F - 30.0 °F 79% 30.15 in 10.0 mi Calm Calm - N/A   Clear
6:35 AM 36.9 °F - 30.6 °F 78% 30.16 in 10.0 mi Calm Calm - N/A   Clear
6:55 AM 40.5 °F - 30.6 °F 68% 30.17 in 10.0 mi Calm Calm - N/A   Clear
7:15 AM 43.3 °F - 31.8 °F 64% 30.17 in 10.0 mi Calm Calm - N/A   Clear
7:35 AM 46.0 °F - 31.6 °F 57% 30.17 in 10.0 mi Calm Calm - N/A   Clear
7:55 AM 49.6 °F - 28.4 °F 44% 30.17 in 10.0 mi Calm Calm - N/A   Clear
8:15 AM 51.1 °F - 27.9 °F 41% 30.17 in 10.0 mi Calm Calm - N/A   Clear
8:35 AM 54.3 °F - 27.0 °F 35% 30.18 in 10.0 mi Calm Calm - N/A   Clear
8:55 AM 56.3 °F - 26.4 °F 32% 30.18 in 10.0 mi Calm Calm - N/A   Clear
9:15 AM 57.2 °F - 24.1 °F 28% 30.19 in 10.0 mi South 3.5 mph - N/A   Clear
9:35 AM 57.9 °F - 19.9 °F 23% 30.19 in 10.0 mi SW 4.6 mph - N/A   Clear
9:55 AM 58.5 °F - 16.5 °F 19% 30.19 in 10.0 mi SSE 3.5 mph - N/A   Clear
10:15 AM 60.4 °F - 20.5 °F 21% 30.18 in 10.0 mi WSW 3.5 mph - N/A   Clear
10:35 AM 61.3 °F - 19.6 °F 20% 30.17 in 10.0 mi Calm Calm - N/A   Clear
10:55 AM 62.8 °F - 19.6 °F 19% 30.18 in 10.0 mi Calm Calm - N/A   Clear
11:15 AM 63.5 °F - 21.0 °F 20% 30.17 in 10.0 mi South 5.8 mph - N/A   Clear
11:35 AM 64.8 °F - 18.5 °F 17% 30.16 in 10.0 mi Calm Calm - N/A   Clear
11:55 AM 66.6 °F - 18.9 °F 16% 30.16 in 10.0 mi WSW 10.4 mph 21.9 mph N/A   Clear
12:15 PM 68.4 °F - 18.5 °F 15% 30.15 in 10.0 mi West 12.7 mph 17.3 mph N/A   Clear
12:35 PM 68.2 °F - 16.5 °F 14% 30.14 in 10.0 mi SW 12.7 mph 21.9 mph N/A   Clear
12:55 PM 70.2 °F - 17.4 °F 13% 30.13 in 10.0 mi SW 13.8 mph 19.6 mph N/A   Clear
1:15 PM 69.8 °F - 16.7 °F 13% 30.12 in 10.0 mi SSW 10.4 mph 16.1 mph N/A   Clear
1:35 PM 71.1 °F - 15.6 °F 12% 30.11 in 10.0 mi South 18.4 mph 21.9 mph N/A   Clear
1:55 PM 71.2 °F - 15.1 °F 12% 30.11 in 10.0 mi SSW 11.5 mph 18.4 mph N/A   Clear
2:15 PM 71.4 °F - 15.4 °F 12% 30.11 in 10.0 mi SW 11.5 mph 23.0 mph N/A   Scattered Clouds
2:35 PM 71.2 °F - 14.7 °F 12% 30.09 in 10.0 mi SSW 10.4 mph 23.0 mph N/A   Scattered Clouds
2:55 PM 73.2 °F - 15.6 °F 11% 30.09 in 10.0 mi WSW 15.0 mph 27.6 mph N/A   Scattered Clouds
3:15 PM 73.0 °F - 13.6 °F 10% 30.09 in 10.0 mi SW 10.4 mph 21.9 mph N/A   Scattered Clouds
3:35 PM 72.7 °F - 12.6 °F 10% 30.07 in 10.0 mi SW 16.1 mph 21.9 mph N/A   Scattered Clouds
4:15 PM 73.4 °F - 12.7 °F 10% 30.06 in 10.0 mi WSW 10.4 mph 23.0 mph N/A   Clear
4:35 PM 72.3 °F - 12.0 °F 10% 30.06 in 10.0 mi SW 11.5 mph 20.7 mph N/A   Clear
4:55 PM 73.4 °F - 12.6 °F 10% 30.06 in 10.0 mi SW 12.7 mph 23.0 mph N/A   Scattered Clouds
5:15 PM 72.7 °F - 12.4 °F 10% 30.06 in 10.0 mi WSW 11.5 mph 19.6 mph N/A   Clear
5:35 PM 73.2 °F - 13.5 °F 10% 30.06 in 10.0 mi West 12.7 mph 23.0 mph N/A   Clear
5:55 PM 72.9 °F - 13.3 °F 10% 30.06 in 10.0 mi WSW 13.8 mph 20.7 mph N/A   Clear
6:15 PM 72.9 °F - 12.6 °F 10% 30.05 in 10.0 mi SSW 12.7 mph 21.9 mph N/A   Clear
6:35 PM 71.6 °F - 12.0 °F 10% 30.06 in 10.0 mi SW 13.8 mph 20.7 mph N/A Thunderstorm Clear
6:55 PM 70.9 °F - 12.6 °F 11% 30.06 in 10.0 mi WSW 10.4 mph - N/A   Clear
7:15 PM 70.7 °F - 12.6 °F 11% 30.06 in 10.0 mi WSW 8.1 mph - N/A   Clear
7:35 PM 69.8 °F - 13.5 °F 11% 30.06 in 10.0 mi WSW 6.9 mph - N/A   Clear
7:55 PM 66.7 °F - 16.9 °F 15% 30.06 in 10.0 mi West 3.5 mph - N/A   Clear
8:15 PM 63.7 °F - 17.4 °F 17% 30.06 in 10.0 mi West 3.5 mph - N/A   Clear
8:35 PM 61.7 °F - 16.7 °F 17% 30.07 in 10.0 mi Calm Calm - N/A   Clear
8:55 PM 55.0 °F - 20.3 °F 26% 30.07 in 10.0 mi Calm Calm - N/A   Clear
9:15 PM 55.6 °F - 19.8 °F 25% 30.07 in 10.0 mi Calm Calm - N/A   Clear
9:35 PM 54.1 °F - 20.3 °F 27% 30.08 in 10.0 mi Calm Calm - N/A   Clear
9:55 PM 50.5 °F - 21.2 °F 32% 30.09 in 10.0 mi Calm Calm - N/A   Clear
10:15 PM 52.5 °F - 19.2 °F 27% 30.09 in 10.0 mi Calm Calm - N/A   Clear
10:35 PM 50.9 °F - 19.6 °F 29% 30.10 in 10.0 mi Calm Calm - N/A   Clear
10:55 PM 48.0 °F - 20.8 °F 34% 30.10 in 10.0 mi Calm Calm - N/A   Clear
11:15 PM 46.9 °F - 21.7 °F 37% 30.09 in 10.0 mi Calm Calm - N/A   Clear
11:35 PM 48.2 °F - 21.0 °F 34% 30.09 in 10.0 mi Calm Calm - N/A   Clear
11:55 PM 49.3 °F - 23.2 °F 36% 30.09 in 10.0 mi Calm Calm - N/A   Clear